Terminal Aerodrome Forecast
Issued by NWS Bismarck, ND

Home | Current Version | Previous Version | Graphics & Text | Print | Product List | Glossary On
Versions: 1 2 3 4 5 6 7 8 9 10 11 12 13 14 15 16 17 18 19 20 21
000
FTUS43 KBIS 150432 AAB
TAFBIS
TAF AMD
KBIS 150432Z 1505/1524 33014G20KT P6SM BKN110
     FM150530 32017G26KT P6SM SCT110
      TEMPO 1506/1508 BKN015
     FM150800 31017G24KT P6SM BKN015 OVC025
     FM151400 33011KT P6SM BKN035
     FM151800 35007KT P6SM FEW040 SCT250=

USA.gov is the U.S. government's official web portal to all federal, state and local government web resources and services.